User: anonymous   Login
Location: Gerlach
(40.6516°N, 119.3568°W)
Time: 21:12:41
(UTC-07:00)
Language:

SSOT - Orbit

View from above orbital plane
View from above orbital plane
View from above satellite
View from above satellite

Ground track
Ground track

The orbit data is extracted from the following two-line orbital elements,

1 38011U 11076E   24168.58897223  .00002122  00000-0  27463-3 0  9995
2 38011  97.9047 231.4110 0001378  93.1041  41.0441 14.81917454676164
Epoch (UTC): 16 June 2024 14:08:07
Eccentricity: 0.0001378
inclination: 97.9047°
perigee height: 622 km
apogee height: 624 km
right ascension of ascending node: 231.4110°
argument of perigee: 93.1041°
revolutions per day: 14.81917454
mean anomaly at epoch: 41.0441°
orbit number at epoch: 67616

The dashed part of the orbit path shows where the satellite is in the earth's shadow,  

DLR